User: anonymous   Login
Location: Unspecified
(0.0000°N, 0.0000°E)
Time: 14:28:18
(UTC+00:00)
Language:

Tiros 10 - Orbit

View from above orbital plane
View from above orbital plane
View from above satellite
View from above satellite

Ground track
Ground track

The orbit data is extracted from the following two-line orbital elements,

1 01430U 65051A   17351.01892954 -.00000003  00000-0  11720-4 0  9999
2 01430  98.1653 136.5726 0057610  63.0207 297.6850 14.40210056749414
Epoch (UTC): 17 December 2017 00:27:15
Eccentricity: 0.0057610
inclination: 98.1653°
perigee height: 716 km
apogee height: 799 km
right ascension of ascending node: 136.5726°
argument of perigee: 63.0207°
revolutions per day: 14.40210056
mean anomaly at epoch: 297.6850°
orbit number at epoch: 74941

The dashed part of the orbit path shows where the satellite is in the earth's shadow,  

DLR